User: anonymous   Login
Location: Unspecified
(0.0000°N, 0.0000°E)
Time: 02:10:51
(UTC+00:00)
Language:

STARLINK-2569 - Orbit

View from above orbital plane
View from above orbital plane
View from above satellite
View from above satellite

Ground track
Ground track

The orbit is defined by the following mean orbital elements,

1 48277U          26145.06001947 +.00000000 +00000-0 +12446-2 0 00005
2 48277  53.1262  17.7217 0005122 111.3002 248.8545 15.29647716    06
Epoch (UTC): 25 May 2026 01:26:25
Eccentricity: 0.0005122
inclination: 53.1262°
perigee height: 473 km
apogee height: 480 km
right ascension of ascending node: 17.7217°
argument of perigee: 111.3002°
revolutions per day: 15.29647716
mean anomaly at epoch: 248.8545°

The dashed part of the orbit path shows where the satellite is in the earth's shadow,  

DLR